PulseSat

PulseSat

GSAT0213 (PRN E04)

Last updated on March 21, 2019, 3:13 a.m. UTC

1 41861U 16069C   19078.29901195 -.00000013  00000-0  00000-0 0  9998
2 41861  54.5953 174.5216 0003543 264.0659  95.9036  1.70473873 14531
UTC
Height (km)
Latitude
Longitude
Inclination
Orbital Period

Next 30 passes for location: Hong Kong

Rise time Rise Azimuth (degrees) Set time Set Azimuth (degrees) Duration Max altitude (degrees)

No matching passes for this satellites

PulseSat

PulseSat is the new satellites software and hardware trackering solution by Pulsely.
Satellite Two Line Element Set source: US Air Force Space Command

Download PulseSat for iOS
© 2017 Pulsely Limited